Weather History for Elefsis, Greece

Change the Weather History Date:

Saturday, December 1, 2012

  Actual Average Record
Temperature  
Mean Temperature 60 °F -  
Max Temperature 66 °F 55 °F 73 °F (2010)
Min Temperature 53 °F 43 °F 37 °F (1999)
Degree Days  
Heating Degree Days 6    
Growing Degree Days 10 (Base 50)    
Moisture  
Dew Point 54 °F    
Average Humidity 82    
Maximum Humidity 94    
Minimum Humidity 64    
Precipitation  
Precipitation 0.00 in - - ()
Sea Level Pressure  
Sea Level Pressure 29.89 in    
Wind  
Wind Speed 0 mph ()    
Max Wind Speed 5 mph    
Max Gust Speed -    
Visibility 6.0 miles    
Events Rain , Thunderstorm    
Averages and records for this station are not official NWS values.
T = Trace of Precipitation, MM = Missing Value Source: Averaged Metar Reports

Daily Weather History Graph

Daily Weather History Graph

Search for Another Location

Airport:

Trip Planner

Search our weather history database for the weather conditions in past years. The results will help you decide how hot, cold, wet, or windy it might be!

Date:

Astronomy

Dec. 01, 2012 Rise Set
Actual Time 7:23 AM EET 5:06 PM EET
Civil Twilight 6:54 AM EET 5:35 PM EET
Nautical Twilight 6:21 AM EET 6:08 PM EET
Astronomical Twilight 5:49 AM EET 6:39 PM EET
Moon 7:38 PM EET (12/1) 9:24 AM EET (12/1)
Length of Visible Light 10h 41m
Length of Day
9h 43m
Waning Gibbous, 93% of the Moon is Illuminated
Dec 1
Waning Gibbous
Dec 6
Last Quarter
Dec 13
New
Dec 20
First Quarter
Dec 28
Full

Hourly Weather History & Observations

Time (EET) Temp. Dew Point Humidity Pressure Visibility Wind Dir Wind Speed Gust Speed Precip Events Conditions
12:50 AM 59.0 °F 55.4 °F 88% 29.89 in 6.2 mi Calm Calm - N/A   Light Drizzle
1:50 AM 59.0 °F 55.4 °F 88% 29.86 in 5.6 mi Calm Calm - N/A Rain Light Rain
2:50 AM 59.0 °F 55.4 °F 88% 29.86 in 5.6 mi Calm Calm - N/A Rain Light Rain
3:50 AM 57.2 °F 55.4 °F 94% 29.86 in 6.2 mi Calm Calm - N/A Rain Light Rain
4:50 AM 57.2 °F 55.4 °F 94% 29.86 in 6.2 mi Calm Calm - N/A   Scattered Clouds
5:20 AM 57.2 °F 55.4 °F 94% 29.83 in 6.2 mi Calm Calm - N/A   Scattered Clouds
5:50 AM 57.2 °F 55.4 °F 94% 29.83 in 6.2 mi Calm Calm - N/A   Scattered Clouds
6:20 AM 57.2 °F 55.4 °F 94% 29.83 in 6.2 mi Calm Calm - N/A   Scattered Clouds
6:50 AM 57.2 °F 55.4 °F 94% 29.83 in 6.2 mi Calm Calm - N/A   Scattered Clouds
7:20 AM 59.0 °F 55.4 °F 88% 29.83 in 6.2 mi Calm Calm - N/A   Mostly Cloudy
7:50 AM 59.0 °F 55.4 °F 88% 29.83 in 4.3 mi Calm Calm - N/A Rain , Thunderstorm Light Thunderstorms and Rain
8:20 AM 57.2 °F 55.4 °F 94% 29.86 in 4.3 mi Calm Calm - N/A Rain , Thunderstorm Light Thunderstorms and Rain
8:50 AM 59.0 °F 55.4 °F 88% 29.86 in 4.3 mi Calm Calm - N/A Rain , Thunderstorm Light Thunderstorms and Rain
9:20 AM 59.0 °F 55.4 °F 88% 29.86 in 5.6 mi Calm Calm - N/A Rain Light Rain
9:50 AM 59.0 °F 55.4 °F 88% 29.86 in 6.2 mi Calm Calm - N/A   Mostly Cloudy
10:20 AM 59.0 °F 55.4 °F 88% 29.89 in 6.2 mi Calm Calm - N/A   Scattered Clouds
10:50 AM 60.8 °F 55.4 °F 82% 29.89 in 6.2 mi Calm Calm - N/A   Scattered Clouds
11:20 AM 64.4 °F 55.4 °F 73% 29.89 in 6.2 mi Calm Calm - N/A   Partly Cloudy
11:50 AM 64.4 °F 57.2 °F 77% 29.89 in 6.2 mi Calm Calm - N/A   Scattered Clouds
12:20 PM 64.4 °F 55.4 °F 73% 29.89 in 6.2 mi South 4.6 mph - N/A   Scattered Clouds
12:50 PM 64.4 °F 57.2 °F 77% 29.86 in 6.2 mi Variable 3.5 mph - N/A   Partly Cloudy
1:20 PM 66.2 °F 57.2 °F 73% 29.86 in 6.2 mi Calm Calm - N/A   Partly Cloudy
1:50 PM 66.2 °F 57.2 °F 73% 29.86 in 6.2 mi Calm Calm - N/A   Partly Cloudy
2:20 PM 66.2 °F 57.2 °F 73% 29.86 in 6.2 mi Calm Calm - N/A   Partly Cloudy
2:50 PM 66.2 °F 57.2 °F 73% 29.86 in 6.2 mi Calm Calm - N/A   Partly Cloudy
3:20 PM 66.2 °F 55.4 °F 68% 29.86 in 6.2 mi Calm Calm - N/A   Partly Cloudy
3:50 PM 66.2 °F 55.4 °F 68% 29.86 in 6.2 mi Calm Calm - N/A   Partly Cloudy
4:20 PM 66.2 °F 53.6 °F 64% 29.89 in 6.2 mi Calm Calm - N/A   Partly Cloudy
4:50 PM 62.6 °F 51.8 °F 68% 29.89 in 6.2 mi Calm Calm - N/A   Partly Cloudy
5:20 PM 62.6 °F 51.8 °F 68% 29.89 in 6.2 mi Calm Calm - N/A   Partly Cloudy
5:50 PM 60.8 °F 50.0 °F 68% 29.92 in 6.2 mi Calm Calm - N/A   Partly Cloudy
6:20 PM 60.8 °F 50.0 °F 68% 29.92 in 6.2 mi Calm Calm - N/A   Partly Cloudy
6:50 PM 57.2 °F 51.8 °F 82% 29.92 in 6.2 mi Calm Calm - N/A   Partly Cloudy
7:20 PM 57.2 °F 50.0 °F 77% 29.95 in 6.2 mi Calm Calm - N/A   Partly Cloudy
7:50 PM 57.2 °F 50.0 °F 77% 29.95 in 6.2 mi Calm Calm - N/A   Partly Cloudy
8:20 PM 57.2 °F 50.0 °F 77% 29.95 in 6.2 mi Calm Calm - N/A   Partly Cloudy
8:50 PM 55.4 °F 50.0 °F 82% 29.95 in 6.2 mi Calm Calm - N/A   Partly Cloudy
9:20 PM 55.4 °F 50.0 °F 82% 29.95 in 6.2 mi Calm Calm - N/A   Partly Cloudy
9:50 PM 53.6 °F 50.0 °F 88% 29.98 in - Calm Calm - N/A   Clear
10:20 PM 53.6 °F 50.0 °F 88% 29.98 in - Calm Calm - N/A   Clear
10:50 PM 53.6 °F 50.0 °F 88% 29.98 in - Calm Calm - N/A   Clear
11:50 PM 53.6 °F 50.0 °F 88% 29.98 in - Calm Calm - N/A   Clear